When you browse on this site, cookies collect data to enhance your experience and personalize the content and advertising you see.
Visit our Privacy Policy to learn more. By continuing to use the site, you agree to this use of cookies and data.
  • In Österreich
  • Länderverzeichnis
  • Für 7 Tage
  • Wassertemperatur
  • Wetterkarte
  • News
  • Widgets
  • user-avatar
    Anmelden

    Stündliche Wetter Mustaevo

    Heute, 23 Februar, Sonntag

    Zeit Temperatur Niederschläge Wind Luftdruck Luftfeuchtigkeit
    00:00 -7°C° 0 mm 1 m/S 765 mmHg 89%
    01:00 -7°C° 0 mm 1 m/S 765 mmHg 89%
    02:00 -8°C° 0 mm 1 m/S 765 mmHg 90%
    03:00 -8°C° 0 mm 1 m/S 765 mmHg 91%
    04:00 -9°C° 0 mm 2 m/S 765 mmHg 92%
    05:00 -9°C° 0 mm 2 m/S 764 mmHg 93%
    06:00 -10°C° 0 mm 2 m/S 764 mmHg 94%
    07:00 -10°C° 0 mm 2 m/S 764 mmHg 96%
    08:00 -10°C° 0 mm 3 m/S 763 mmHg 95%
    09:00 -9°C° 0 mm 3 m/S 763 mmHg 95%
    10:00 -10°C° 0 mm 4 m/S 763 mmHg 94%
    11:00 -9°C° 0 mm 4 m/S 762 mmHg 93%
    12:00 -9°C° 0 mm 4 m/S 761 mmHg 93%
    13:00 -8°C° 0 mm 5 m/S 761 mmHg 92%
    14:00 -8°C° 0 mm 5 m/S 760 mmHg 92%
    15:00 -7°C° 0 mm 5 m/S 760 mmHg 92%
    16:00 -7°C° 0 mm 5 m/S 759 mmHg 92%
    17:00 -8°C° 0 mm 5 m/S 759 mmHg 93%
    18:00 -8°C° 0 mm 5 m/S 758 mmHg 93%
    19:00 -10°C° 0 mm 6 m/S 757 mmHg 94%
    20:00 -9°C° 0 mm 6 m/S 757 mmHg 94%
    21:00 -9°C° 0 mm 6 m/S 756 mmHg 95%
    22:00 -9°C° 0 mm 6 m/S 756 mmHg 96%
    23:00 -8°C° 0 mm 6 m/S 755 mmHg 94%

    Morgen, 24 Februar, Montag

    Zeit Temperatur Niederschläge Wind Luftdruck Luftfeuchtigkeit
    00:00 -8°C° 0 mm 6 m/S 754 mmHg 93%
    01:00 -6°C° 0 mm 6 m/S 753 mmHg 92%
    02:00 -6°C° 0.1 mm 6 m/S 753 mmHg 93%
    03:00 -6°C° 0.1 mm 6 m/S 752 mmHg 94%
    04:00 -6°C° 0.1 mm 6 m/S 751 mmHg 95%
    05:00 -6°C° 0.6 mm 7 m/S 750 mmHg 96%
    06:00 -4°C° 0.6 mm 7 m/S 750 mmHg 96%
    07:00 -4°C° 0.6 mm 7 m/S 749 mmHg 96%
    08:00 -3°C° 0.1 mm 7 m/S 749 mmHg 97%
    09:00 -3°C° 0.1 mm 7 m/S 748 mmHg 97%
    10:00 -2°C° 0.1 mm 8 m/S 748 mmHg 98%
    11:00 -2°C° 0.5 mm 8 m/S 748 mmHg 98%
    12:00 -4°C° 0.5 mm 8 m/S 748 mmHg 98%
    13:00 -4°C° 0.5 mm 8 m/S 747 mmHg 98%
    14:00 -3°C° 0.2 mm 7 m/S 747 mmHg 98%
    15:00 -2°C° 0.2 mm 7 m/S 747 mmHg 98%
    16:00 -2°C° 0.2 mm 6 m/S 747 mmHg 98%
    17:00 -2°C° 0.2 mm 6 m/S 748 mmHg 98%
    18:00 -1°C° 0.2 mm 5 m/S 748 mmHg 98%
    19:00 -1°C° 0.2 mm 5 m/S 748 mmHg 98%
    20:00 -1°C° 0.2 mm 4 m/S 748 mmHg 98%
    21:00 -1°C° 0.2 mm 4 m/S 748 mmHg 98%
    22:00 0°C° 0.2 mm 3 m/S 748 mmHg 98%
    23:00 -1°C° 0 mm 3 m/S 748 mmHg 98%

    übermorgen, 25 Februar, Dienstag

    Zeit Temperatur Niederschläge Wind Luftdruck Luftfeuchtigkeit
    00:00 -1°C° 0 mm 3 m/S 748 mmHg 98%
    01:00 -1°C° 0 mm 3 m/S 748 mmHg 98%
    02:00 -1°C° 0.6 mm 3 m/S 748 mmHg 98%
    03:00 -1°C° 0.6 mm 4 m/S 748 mmHg 98%
    04:00 -1°C° 0.6 mm 4 m/S 748 mmHg 99%
    05:00 -1°C° 0.3 mm 4 m/S 747 mmHg 98%
    06:00 -1°C° 0.3 mm 4 m/S 747 mmHg 98%
    07:00 -1°C° 0.3 mm 4 m/S 747 mmHg 98%
    08:00 -1°C° 0.1 mm 5 m/S 746 mmHg 98%
    09:00 -1°C° 0.1 mm 5 m/S 746 mmHg 99%
    10:00 -1°C° 0.1 mm 5 m/S 746 mmHg 99%
    11:00 -2°C° 0.6 mm 6 m/S 746 mmHg 99%
    12:00 -2°C° 0.6 mm 6 m/S 745 mmHg 99%
    13:00 -2°C° 0.6 mm 6 m/S 745 mmHg 99%
    14:00 -2°C° 0.1 mm 7 m/S 744 mmHg 99%
    15:00 -1°C° 0.1 mm 7 m/S 744 mmHg 98%
    16:00 -1°C° 0.1 mm 7 m/S 743 mmHg 98%
    17:00 -1°C° 0.2 mm 7 m/S 742 mmHg 98%
    18:00 -2°C° 0.2 mm 7 m/S 742 mmHg 98%
    19:00 -2°C° 0.2 mm 6 m/S 741 mmHg 98%
    20:00 -1°C° 1 mm 5 m/S 741 mmHg 98%
    21:00 -1°C° 1 mm 4 m/S 741 mmHg 99%
    22:00 0°C° 1 mm 3 m/S 740 mmHg 99%
    23:00 0°C° 0.4 mm 3 m/S 740 mmHg 99%

    26 Februar, Mittwoch

    Zeit Temperatur Niederschläge Wind Luftdruck Luftfeuchtigkeit
    00:00 0°C° 0.4 mm 3 m/S 739 mmHg 98%
    01:00 0°C° 0.4 mm 3 m/S 739 mmHg 98%
    02:00 0°C° 0 mm 3 m/S 739 mmHg 98%
    03:00 0°C° 0 mm 3 m/S 740 mmHg 98%
    04:00 -2°C° 0 mm 4 m/S 740 mmHg 97%
    05:00 -4°C° 0.1 mm 5 m/S 741 mmHg 95%
    06:00 -6°C° 0.1 mm 7 m/S 741 mmHg 92%
    07:00 -6°C° 0.1 mm 8 m/S 742 mmHg 89%
    08:00 -7°C° 0 mm 8 m/S 743 mmHg 88%
    09:00 -7°C° 0 mm 8 m/S 744 mmHg 88%
    10:00 -8°C° 0 mm 8 m/S 745 mmHg 88%
    11:00 -7°C° 0 mm 8 m/S 746 mmHg 86%
    12:00 -7°C° 0 mm 8 m/S 746 mmHg 85%
    13:00 -7°C° 0 mm 8 m/S 747 mmHg 84%
    14:00 -7°C° 0 mm 7 m/S 748 mmHg 84%
    15:00 -7°C° 0 mm 7 m/S 748 mmHg 84%
    16:00 -6°C° 0 mm 6 m/S 749 mmHg 84%
    17:00 -7°C° 0 mm 5 m/S 750 mmHg 86%
    18:00 -8°C° 0 mm 5 m/S 751 mmHg 88%
    19:00 -9°C° 0 mm 4 m/S 751 mmHg 90%
    20:00 -9°C° 0 mm 3 m/S 752 mmHg 91%
    21:00 -9°C° 0 mm 3 m/S 753 mmHg 92%
    22:00 -8°C° 0 mm 2 m/S 753 mmHg 93%
    23:00 -8°C° 0 mm 2 m/S 753 mmHg 93%

    27 Februar, Donnerstag

    Zeit Temperatur Niederschläge Wind Luftdruck Luftfeuchtigkeit
    00:00 -8°C° 0 mm 2 m/S 754 mmHg 92%
    01:00 -7°C° 0 mm 2 m/S 754 mmHg 92%
    02:00 -7°C° 0 mm 2 m/S 754 mmHg 92%
    03:00 -8°C° 0 mm 3 m/S 754 mmHg 92%
    04:00 -7°C° 0 mm 3 m/S 754 mmHg 92%
    05:00 -6°C° 0 mm 3 m/S 754 mmHg 94%
    06:00 -5°C° 0 mm 3 m/S 754 mmHg 95%
    07:00 -2°C° 0 mm 3 m/S 754 mmHg 97%
    08:00 -2°C° 0 mm 3 m/S 755 mmHg 97%
    09:00 -2°C° 0 mm 4 m/S 755 mmHg 97%
    10:00 -1°C° 0 mm 5 m/S 756 mmHg 96%
    11:00 -1°C° 0 mm 5 m/S 756 mmHg 97%
    12:00 -1°C° 0 mm 4 m/S 756 mmHg 98%
    13:00 -1°C° 0 mm 4 m/S 757 mmHg 99%
    14:00 -1°C° 0 mm 4 m/S 757 mmHg 96%
    15:00 -1°C° 0 mm 4 m/S 757 mmHg 93%
    16:00 -1°C° 0 mm 4 m/S 757 mmHg 90%
    17:00 -1°C° 0 mm 4 m/S 757 mmHg 87%
    18:00 -1°C° 0 mm 4 m/S 757 mmHg 83%
    19:00 -1°C° 0 mm 4 m/S 757 mmHg 79%
    20:00 -1°C° 0 mm 4 m/S 757 mmHg 78%
    21:00 -1°C° 0 mm 5 m/S 757 mmHg 78%
    22:00 -1°C° 0 mm 5 m/S 757 mmHg 77%
    23:00 -1°C° 0 mm 5 m/S 757 mmHg 75%

    28 Februar, Freitag

    Zeit Temperatur Niederschläge Wind Luftdruck Luftfeuchtigkeit
    00:00 -1°C° 0 mm 5 m/S 757 mmHg 73%
    01:00 -1°C° 0 mm 5 m/S 757 mmHg 72%
    02:00 -2°C° 0 mm 5 m/S 757 mmHg 73%
    03:00 -2°C° 0 mm 5 m/S 757 mmHg 74%
    04:00 -2°C° 0 mm 5 m/S 757 mmHg 75%
    05:00 -2°C° 0 mm 5 m/S 757 mmHg 76%
    06:00 -4°C° 0 mm 5 m/S 757 mmHg 77%
    07:00 -4°C° 0 mm 5 m/S 757 mmHg 78%
    08:00 -4°C° 0 mm 5 m/S 757 mmHg 78%
    09:00 -2°C° 0 mm 5 m/S 757 mmHg 78%
    10:00 -3°C° 0 mm 6 m/S 757 mmHg 78%
    11:00 -3°C° 0 mm 6 m/S 757 mmHg 78%
    12:00 -2°C° 0 mm 6 m/S 758 mmHg 78%
    13:00 -2°C° 0 mm 6 m/S 758 mmHg 78%
    14:00 -2°C° 0 mm 6 m/S 758 mmHg 78%
    15:00 -1°C° 0 mm 6 m/S 757 mmHg 77%
    16:00 0°C° 0 mm 5 m/S 757 mmHg 76%
    17:00 -1°C° 0 mm 5 m/S 757 mmHg 77%
    18:00 -1°C° 0 mm 5 m/S 757 mmHg 77%
    19:00 -1°C° 0 mm 5 m/S 758 mmHg 78%
    20:00 -1°C° 0 mm 5 m/S 758 mmHg 79%
    21:00 -2°C° 0 mm 5 m/S 758 mmHg 80%
    22:00 -2°C° 0 mm 4 m/S 758 mmHg 81%
    23:00 -2°C° 0 mm 4 m/S 758 mmHg 82%
    Mehr zeigen